| time (UTC) | temp F | wind direction | speed MPH | gust MPH | rain 1hr in | rain 24hr in | rain mn in | humidity % | barometer mb |
| 20260506221716 | 66 | 226 | 1.0 | 7.0 | 0.00 | 0.08 | 0.08 | 79 | 1007.1 |
| 20260506221211 | 66 | 163 | 1.0 | 7.0 | 0.00 | 0.08 | 0.08 | 79 | 1007.0 |
| 20260506220704 | 66 | 187 | 2.0 | 7.0 | 0.00 | 0.08 | 0.08 | 79 | 1006.9 |
| 20260506220158 | 66 | 184 | 1.0 | 7.0 | 0.00 | 0.08 | 0.08 | 80 | 1007.0 |
| 20260506215651 | 65 | 188 | 1.0 | 7.0 | 0.00 | 0.08 | 0.08 | 80 | 1006.8 |
| 20260506215145 | 65 | 179 | 1.0 | 5.0 | 0.00 | 0.08 | 0.08 | 80 | 1006.7 |
| 20260506214641 | 65 | 152 | 1.0 | 8.0 | 0.00 | 0.08 | 0.08 | 80 | 1006.7 |
| 20260506214134 | 65 | 209 | 0.0 | 8.0 | 0.00 | 0.08 | 0.08 | 80 | 1006.8 |
| 20260506213629 | 65 | 159 | 1.0 | 6.0 | 0.00 | 0.08 | 0.08 | 81 | 1006.7 |
| 20260506213121 | 65 | 187 | 1.0 | 12.0 | 0.00 | 0.08 | 0.08 | 80 | 1006.6 |
| 20260506212848 | 65 | 178 | 1.0 | 12.0 | 0.00 | 0.08 | 0.08 | 80 | 1006.6 |
| 20260506212109 | 65 | 196 | 2.0 | 15.0 | 0.00 | 0.08 | 0.08 | 81 | 1006.6 |
| 20260506211604 | 65 | 140 | 2.0 | 15.0 | 0.00 | 0.08 | 0.08 | 81 | 1006.6 |
| 20260506211329 | 65 | 154 | 4.0 | 17.0 | 0.00 | 0.08 | 0.08 | 81 | 1006.6 |
| 20260506210552 | 64 | 142 | 4.0 | 17.0 | 0.00 | 0.08 | 0.08 | 81 | 1006.7 |
| 20260506210046 | 64 | 229 | 3.0 | 13.0 | 0.00 | 0.08 | 0.08 | 82 | 1006.5 |
| 20260506205540 | 64 | 148 | 3.0 | 13.0 | 0.00 | 0.08 | 0.08 | 82 | 1006.6 |
| 20260506205034 | 64 | 161 | 3.0 | 12.0 | 0.00 | 0.08 | 0.08 | 82 | 1006.5 |
| 20260506204529 | 64 | 178 | 2.0 | 12.0 | 0.00 | 0.08 | 0.08 | 83 | 1006.3 |
| 20260506204252 | 64 | 177 | 3.0 | 13.0 | 0.00 | 0.08 | 0.08 | 83 | 1006.4 |
| 20260506203516 | 64 | 159 | 3.0 | 13.0 | 0.00 | 0.08 | 0.08 | 82 | 1006.3 |
| 20260506203011 | 64 | 161 | 3.0 | 10.0 | 0.00 | 0.08 | 0.08 | 84 | 1006.4 |
| 20260506202504 | 63 | 196 | 3.0 | 12.0 | 0.00 | 0.08 | 0.08 | 84 | 1006.4 |
| 20260506201958 | 63 | 182 | 2.0 | 12.0 | 0.00 | 0.08 | 0.08 | 85 | 1006.2 |
| 20260506201453 | 63 | 187 | 1.0 | 6.0 | 0.00 | 0.08 | 0.08 | 86 | 1006.3 |
| 20260506200946 | 62 | 189 | 2.0 | 7.0 | 0.00 | 0.08 | 0.08 | 87 | 1006.4 |
| 20260506200441 | 62 | 198 | 3.0 | 9.0 | 0.00 | 0.08 | 0.08 | 86 | 1006.5 |
| 20260506195934 | 62 | 184 | 2.0 | 9.0 | 0.00 | 0.08 | 0.08 | 87 | 1006.6 |
| 20260506195428 | 62 | 157 | 3.0 | 10.0 | 0.00 | 0.08 | 0.08 | 87 | 1006.6 |
| 20260506194922 | 62 | 187 | 2.0 | 10.0 | 0.00 | 0.08 | 0.08 | 87 | 1006.8 |
| 20260506194415 | 61 | 204 | 1.0 | 8.0 | 0.00 | 0.08 | 0.08 | 87 | 1007.0 |
| 20260506193910 | 61 | 202 | 2.0 | 8.0 | 0.00 | 0.08 | 0.08 | 86 | 1007.0 |
| 20260506193411 | 61 | 177 | 3.0 | 8.0 | 0.00 | 0.08 | 0.08 | 86 | 1007.0 |
| 20260506192913 | 61 | 154 | 3.0 | 9.0 | 0.00 | 0.08 | 0.08 | 87 | 1007.2 |
| 20260506192642 | 61 | 149 | 3.0 | 13.0 | 0.00 | 0.08 | 0.08 | 86 | 1007.3 |
| 20260506191909 | 61 | 155 | 3.0 | 13.0 | 0.00 | 0.08 | 0.08 | 86 | 1007.2 |
| 20260506191409 | 61 | 189 | 4.0 | 13.0 | 0.00 | 0.08 | 0.08 | 87 | 1007.2 |
| 20260506190906 | 61 | 152 | 4.0 | 13.0 | 0.00 | 0.08 | 0.08 | 87 | 1007.3 |
| 20260506190408 | 61 | 206 | 3.0 | 11.0 | 0.00 | 0.08 | 0.08 | 87 | 1007.3 |
| 20260506185908 | 61 | 177 | 3.0 | 11.0 | 0.00 | 0.08 | 0.08 | 87 | 1007.3 |
| 20260506185637 | 61 | 150 | 3.0 | 11.0 | 0.00 | 0.08 | 0.08 | 87 | 1007.4 |
| 20260506184908 | 61 | 209 | 3.0 | 15.0 | 0.00 | 0.08 | 0.08 | 87 | 1007.3 |
| 20260506184411 | 61 | 183 | 3.0 | 6.0 | 0.00 | 0.08 | 0.08 | 88 | 1007.4 |
| 20260506184406 | 61 | 165 | 4.0 | 15.0 | 0.00 | 0.08 | 0.08 | 87 | 1007.5 |
| 20260506183408 | 61 | 155 | 3.0 | 15.0 | 0.00 | 0.08 | 0.08 | 87 | 1007.3 |
| 20260506182902 | 61 | 169 | 3.0 | 15.0 | 0.00 | 0.08 | 0.08 | 88 | 1007.3 |
| 20260506182402 | 61 | 136 | 1.0 | 9.0 | 0.00 | 0.08 | 0.08 | 88 | 1007.3 |
| 20260506181903 | 61 | 124 | 1.0 | 8.0 | 0.00 | 0.08 | 0.08 | 88 | 1007.3 |
| 20260506181402 | 61 | 153 | 2.0 | 9.0 | 0.00 | 0.08 | 0.08 | 87 | 1007.5 |
| 20260506180902 | 61 | 189 | 2.0 | 9.0 | 0.00 | 0.08 | 0.08 | 87 | 1007.6 |
| 20260506180403 | 61 | 195 | 2.0 | 6.0 | 0.00 | 0.08 | 0.08 | 87 | 1007.7 |
| 20260506180136 | 61 | 219 | 2.0 | 6.0 | 0.01 | 0.08 | 0.08 | 87 | 1007.6 |
| 20260506175402 | 62 | 117 | 3.0 | 11.0 | 0.01 | 0.08 | 0.08 | 87 | 1007.7 |
| 20260506174904 | 62 | 93 | 3.0 | 11.0 | 0.01 | 0.08 | 0.08 | 87 | 1007.7 |
| 20260506174403 | 62 | 242 | 2.0 | 7.0 | 0.01 | 0.08 | 0.08 | 87 | 1007.9 |
| 20260506173904 | 63 | 171 | 2.0 | 7.0 | 0.01 | 0.08 | 0.08 | 87 | 1007.8 |
| 20260506173404 | 63 | 179 | 1.0 | 5.0 | 0.02 | 0.08 | 0.08 | 87 | 1007.8 |
| 20260506172902 | 63 | 169 | 2.0 | 7.0 | 0.02 | 0.08 | 0.08 | 88 | 1007.8 |
| 20260506172401 | 63 | 188 | 2.0 | 7.0 | 0.02 | 0.08 | 0.08 | 88 | 1007.7 |
| 20260506171902 | 63 | 200 | 1.0 | 5.0 | 0.03 | 0.08 | 0.08 | 89 | 1007.8 |
| 20260506171401 | 63 | 154 | 1.0 | 3.0 | 0.03 | 0.08 | 0.08 | 89 | 1007.6 |
| 20260506170900 | 63 | 154 | 0.0 | 3.0 | 0.04 | 0.08 | 0.08 | 90 | 1007.6 |
| 20260506170401 | 63 | 125 | 0.0 | 1.0 | 0.04 | 0.08 | 0.08 | 90 | 1007.7 |
| 20260506165854 | 62 | 167 | 0.0 | 1.0 | 0.04 | 0.07 | 0.07 | 90 | 1007.8 |
| 20260506165627 | 62 | 152 | 0.0 | 1.0 | 0.04 | 0.07 | 0.07 | 89 | 1007.9 |
| 20260506164854 | 62 | 190 | 0.0 | 2.0 | 0.05 | 0.07 | 0.07 | 89 | 1007.9 |
| 20260506164354 | 62 | 235 | 0.0 | 2.0 | 0.05 | 0.07 | 0.07 | 89 | 1008.0 |
| 20260506163852 | 62 | 154 | 0.0 | 3.0 | 0.06 | 0.07 | 0.07 | 88 | 1008.3 |
| 20260506163353 | 62 | 138 | 0.0 | 5.0 | 0.05 | 0.06 | 0.06 | 88 | 1008.4 |
| 20260506162852 | 62 | 116 | 1.0 | 8.0 | 0.06 | 0.06 | 0.06 | 87 | 1008.7 |
| 20260506162353 | 62 | 149 | 2.0 | 10.0 | 0.05 | 0.05 | 0.06 | 87 | 1008.7 |
| 20260506161853 | 62 | 139 | 1.0 | 10.0 | 0.05 | 0.05 | 0.05 | 86 | 1009.0 |
| 20260506161351 | 62 | 170 | 0.0 | 3.0 | 0.05 | 0.05 | 0.05 | 86 | 1009.1 |
| 20260506161124 | 62 | 152 | 0.0 | 3.0 | 0.04 | 0.04 | 0.04 | 85 | 1009.1 |
| 20260506160351 | 62 | 158 | 0.0 | 3.0 | 0.04 | 0.04 | 0.04 | 84 | 1009.1 |
| 20260506155848 | 62 | 148 | 1.0 | 3.0 | 0.03 | 0.03 | 0.03 | 83 | 1009.1 |
| 20260506155349 | 63 | 179 | 1.0 | 6.0 | 0.03 | 0.03 | 0.03 | 82 | 1009.3 |
| 20260506154849 | 63 | 196 | 1.0 | 8.0 | 0.02 | 0.02 | 0.02 | 81 | 1009.3 |
| 20260506154349 | 63 | 237 | 1.0 | 9.0 | 0.02 | 0.02 | 0.02 | 79 | 1009.4 |
| 20260506153849 | 64 | 204 | 2.0 | 9.0 | 0.01 | 0.01 | 0.01 | 78 | 1009.3 |
| 20260506153350 | 64 | 138 | 2.0 | 10.0 | 0.01 | 0.01 | 0.01 | 76 | 1009.1 |
| 20260506152841 | 65 | 134 | 3.0 | 10.0 | 0.00 | 0.00 | 0.00 | 75 | 1009.0 |
| 20260506152334 | 65 | 213 | 2.0 | 9.0 | 0.00 | 0.00 | 0.00 | 72 | 1008.9 |
| 20260506151829 | 65 | 194 | 2.0 | 6.0 | 0.00 | 0.00 | 0.00 | 73 | 1009.0 |
| 20260506151556 | 65 | 140 | 2.0 | 6.0 | 0.00 | 0.00 | 0.00 | 73 | 1008.9 |
| 20260506150816 | 66 | 140 | 2.0 | 9.0 | 0.00 | 0.00 | 0.00 | 74 | 1009.1 |
| 20260506150312 | 66 | 161 | 2.0 | 9.0 | 0.00 | 0.00 | 0.00 | 73 | 1009.1 |
| 20260506150036 | 66 | 180 | 2.0 | 6.0 | 0.00 | 0.00 | 0.00 | 71 | 1009.1 |
| 20260506145258 | 66 | 150 | 2.0 | 9.0 | 0.00 | 0.00 | 0.00 | 69 | 1009.1 |
| 20260506144752 | 66 | 181 | 2.0 | 8.0 | 0.00 | 0.00 | 0.00 | 69 | 1009.2 |
| 20260506144248 | 66 | 152 | 2.0 | 9.0 | 0.00 | 0.00 | 0.00 | 69 | 1009.2 |
| 20260506143741 | 66 | 167 | 3.0 | 9.0 | 0.00 | 0.00 | 0.00 | 69 | 1009.2 |
| 20260506143236 | 66 | 189 | 4.0 | 19.0 | 0.00 | 0.00 | 0.00 | 68 | 1009.1 |
| 20260506142729 | 66 | 173 | 3.0 | 19.0 | 0.00 | 0.00 | 0.00 | 68 | 1009.1 |
| 20260506142224 | 67 | 185 | 3.0 | 14.0 | 0.00 | 0.00 | 0.00 | 68 | 1009.0 |
| 20260506141717 | 67 | 154 | 2.0 | 7.0 | 0.00 | 0.00 | 0.00 | 69 | 1009.1 |
| 20260506141211 | 66 | 198 | 2.0 | 7.0 | 0.00 | 0.00 | 0.00 | 70 | 1009.1 |
| 20260506140705 | 66 | 170 | 3.0 | 11.0 | 0.00 | 0.00 | 0.00 | 70 | 1009.0 |
| 20260506140158 | 66 | 142 | 3.0 | 11.0 | 0.00 | 0.00 | 0.00 | 71 | 1009.0 |
| 20260506135923 | 65 | 164 | 3.0 | 9.0 | 0.00 | 0.00 | 0.00 | 71 | 1009.0 |
| 20260506135147 | 65 | 194 | 3.0 | 9.0 | 0.00 | 0.00 | 0.00 | 71 | 1009.0 |
| 20260506134912 | 65 | 171 | 3.0 | 10.0 | 0.00 | 0.00 | 0.00 | 72 | 1009.1 |
| 20260506134405 | 65 | 154 | 3.0 | 10.0 | 0.00 | 0.00 | 0.00 | 71 | 1009.1 |
| 20260506133629 | 65 | 186 | 3.0 | 9.0 | 0.00 | 0.00 | 0.00 | 71 | 1009.1 |
| 20260506133122 | 65 | 175 | 3.0 | 9.0 | 0.00 | 0.00 | 0.00 | 71 | 1009.0 |
| 20260506132616 | 65 | 236 | 3.0 | 12.0 | 0.00 | 0.00 | 0.00 | 71 | 1009.1 |
| 20260506132110 | 65 | 235 | 3.0 | 12.0 | 0.00 | 0.00 | 0.00 | 71 | 1009.2 |
| 20260506131605 | 65 | 146 | 3.0 | 12.0 | 0.00 | 0.00 | 0.00 | 72 | 1009.3 |
| 20260506131058 | 65 | 130 | 3.0 | 12.0 | 0.00 | 0.00 | 0.00 | 72 | 1009.3 |
| 20260506130552 | 65 | 170 | 4.0 | 11.0 | 0.00 | 0.00 | 0.00 | 72 | 1009.2 |
| 20260506130046 | 65 | 160 | 4.0 | 12.0 | 0.00 | 0.00 | 0.00 | 73 | 1009.2 |
| 20260506125541 | 64 | 154 | 3.0 | 12.0 | 0.00 | 0.00 | 0.00 | 73 | 1009.1 |
| 20260506125035 | 64 | 207 | 2.0 | 7.0 | 0.00 | 0.00 | 0.00 | 73 | 1009.1 |
| 20260506124529 | 64 | 200 | 3.0 | 8.0 | 0.00 | 0.00 | 0.00 | 74 | 1009.1 |
| 20260506124023 | 64 | 112 | 3.0 | 8.0 | 0.00 | 0.00 | 0.00 | 74 | 1009.1 |
| 20260506123518 | 64 | 132 | 2.0 | 7.0 | 0.00 | 0.00 | 0.00 | 74 | 1009.0 |
| 20260506123513 | 63 | 200 | 2.0 | 9.0 | 0.00 | 0.00 | 0.00 | 75 | 1009.0 |
| 20260506122504 | 63 | 168 | 3.0 | 9.0 | 0.00 | 0.00 | 0.00 | 75 | 1009.0 |
| 20260506122000 | 63 | 149 | 2.0 | 6.0 | 0.00 | 0.00 | 0.00 | 75 | 1009.1 |
| 20260506121453 | 63 | 144 | 2.0 | 6.0 | 0.00 | 0.00 | 0.00 | 76 | 1009.1 |
| 20260506120947 | 63 | 160 | 2.0 | 7.0 | 0.00 | 0.00 | 0.00 | 76 | 1009.1 |
| 20260506120711 | 62 | 181 | 2.0 | 7.0 | 0.00 | 0.00 | 0.00 | 75 | 1009.1 |
| 20260506120205 | 63 | 128 | 2.0 | 6.0 | 0.00 | 0.00 | 0.00 | 75 | 1009.1 |
| 20260506115429 | 62 | 142 | 2.0 | 7.0 | 0.00 | 0.00 | 0.00 | 76 | 1009.1 |
| 20260506114922 | 62 | 139 | 3.0 | 7.0 | 0.00 | 0.00 | 0.00 | 76 | 1009.2 |
| 20260506114416 | 62 | 117 | 3.0 | 6.0 | 0.00 | 0.00 | 0.00 | 76 | 1009.0 |
| 20260506113917 | 62 | 131 | 3.0 | 6.0 | 0.00 | 0.00 | 0.00 | 76 | 1009.3 |
| 20260506113416 | 62 | 134 | 3.0 | 8.0 | 0.00 | 0.00 | 0.00 | 76 | 1009.2 |
| 20260506112915 | 62 | 195 | 3.0 | 8.0 | 0.00 | 0.00 | 0.00 | 76 | 1009.3 |
| 20260506112415 | 62 | 173 | 3.0 | 7.0 | 0.00 | 0.00 | 0.00 | 77 | 1009.2 |
| 20260506111915 | 62 | 172 | 2.0 | 7.0 | 0.00 | 0.00 | 0.00 | 77 | 1009.1 |
| 20260506111416 | 62 | 155 | 3.0 | 8.0 | 0.00 | 0.00 | 0.00 | 78 | 1009.1 |
| 20260506110918 | 62 | 221 | 3.0 | 8.0 | 0.00 | 0.00 | 0.00 | 78 | 1009.1 |
| 20260506110416 | 62 | 146 | 3.0 | 8.0 | 0.00 | 0.00 | 0.00 | 78 | 1009.1 |
| 20260506105915 | 62 | 181 | 3.0 | 8.0 | 0.00 | 0.00 | 0.00 | 79 | 1009.1 |
| 20260506105417 | 62 | 143 | 3.0 | 8.0 | 0.00 | 0.00 | 0.00 | 78 | 1009.0 |
| 20260506104918 | 61 | 171 | 2.0 | 8.0 | 0.00 | 0.00 | 0.00 | 79 | 1009.0 |
| 20260506104417 | 61 | 122 | 2.0 | 6.0 | 0.00 | 0.00 | 0.00 | 79 | 1009.0 |
| 20260506104146 | 61 | 203 | 2.0 | 6.0 | 0.00 | 0.00 | 0.00 | 79 | 1008.9 |
| 20260506103416 | 61 | 158 | 3.0 | 8.0 | 0.00 | 0.00 | 0.00 | 79 | 1008.9 |
| 20260506102916 | 61 | 180 | 3.0 | 8.0 | 0.00 | 0.00 | 0.00 | 79 | 1008.9 |
| 20260506102418 | 61 | 174 | 2.0 | 7.0 | 0.00 | 0.00 | 0.00 | 79 | 1008.9 |
| 20260506101917 | 61 | 189 | 3.0 | 7.0 | 0.00 | 0.00 | 0.00 | 79 | 1009.0 |
| 20260506101416 | 61 | 170 | 3.0 | 10.0 | 0.00 | 0.00 | 0.00 | 79 | 1009.0 |
| 20260506100915 | 61 | 159 | 3.0 | 10.0 | 0.00 | 0.00 | 0.00 | 79 | 1009.1 |
| 20260506100417 | 61 | 157 | 2.0 | 7.0 | 0.00 | 0.00 | 0.00 | 79 | 1009.0 |
| 20260506095915 | 61 | 126 | 2.0 | 8.0 | 0.00 | 0.00 | 0.00 | 78 | 1009.0 |
| 20260506095415 | 61 | 147 | 2.0 | 8.0 | 0.00 | 0.00 | 0.00 | 78 | 1008.8 |
| 20260506094917 | 61 | 129 | 2.0 | 6.0 | 0.00 | 0.00 | 0.00 | 78 | 1008.8 |
| 20260506094415 | 62 | 136 | 2.0 | 6.0 | 0.00 | 0.00 | 0.00 | 78 | 1008.8 |
| 20260506093915 | 62 | 167 | 2.0 | 6.0 | 0.00 | 0.00 | 0.00 | 78 | 1008.8 |
| 20260506093648 | 62 | 159 | 2.0 | 8.0 | 0.00 | 0.00 | 0.00 | 78 | 1008.8 |
| 20260506092916 | 62 | 157 | 3.0 | 8.0 | 0.00 | 0.00 | 0.00 | 78 | 1008.8 |
| 20260506092416 | 62 | 190 | 3.0 | 7.0 | 0.00 | 0.00 | 0.00 | 78 | 1008.9 |
| 20260506091916 | 62 | 142 | 3.0 | 7.0 | 0.00 | 0.00 | 0.00 | 78 | 1008.9 |
| 20260506091415 | 62 | 225 | 3.0 | 6.0 | 0.00 | 0.00 | 0.00 | 78 | 1008.9 |
| 20260506090909 | 62 | 188 | 2.0 | 6.0 | 0.00 | 0.00 | 0.00 | 78 | 1008.9 |
| 20260506090405 | 62 | 165 | 1.0 | 6.0 | 0.00 | 0.00 | 0.00 | 78 | 1009.0 |
| 20260506085905 | 62 | 176 | 2.0 | 6.0 | 0.00 | 0.00 | 0.00 | 78 | 1009.1 |
| 20260506085401 | 62 | 144 | 2.0 | 6.0 | 0.00 | 0.00 | 0.00 | 78 | 1009.0 |
| 20260506084901 | 62 | 145 | 2.0 | 7.0 | 0.00 | 0.00 | 0.00 | 78 | 1009.0 |
| 20260506084357 | 62 | 161 | 2.0 | 7.0 | 0.00 | 0.00 | 0.00 | 78 | 1009.0 |
| 20260506083855 | 62 | 131 | 1.0 | 7.0 | 0.00 | 0.00 | 0.00 | 78 | 1009.1 |
| 20260506083356 | 62 | 130 | 1.0 | 6.0 | 0.00 | 0.00 | 0.00 | 78 | 1009.1 |
| 20260506083128 | 62 | 152 | 1.0 | 6.0 | 0.00 | 0.00 | 0.00 | 78 | 1009.0 |
| 20260506082356 | 62 | 148 | 1.0 | 9.0 | 0.00 | 0.00 | 0.00 | 78 | 1009.1 |
| 20260506081857 | 62 | 137 | 1.0 | 9.0 | 0.00 | 0.00 | 0.00 | 78 | 1009.1 |
| 20260506081355 | 62 | 165 | 1.0 | 6.0 | 0.00 | 0.00 | 0.00 | 78 | 1009.2 |
| 20260506080900 | 62 | 142 | 1.0 | 7.0 | 0.00 | 0.00 | 0.00 | 78 | 1009.1 |
| 20260506080855 | 62 | 143 | 2.0 | 7.0 | 0.00 | 0.00 | 0.00 | 78 | 1009.2 |
| 20260506073349 | 63 | 117 | 1.0 | 9.0 | 0.00 | 0.00 | 0.00 | 77 | 1009.2 |
| 20260506072849 | 63 | 171 | 1.0 | 9.0 | 0.00 | 0.00 | 0.00 | 77 | 1009.2 |
| 20260506072344 | 63 | 142 | 1.0 | 8.0 | 0.00 | 0.00 | 0.00 | 76 | 1009.3 |
| 20260506071838 | 63 | 159 | 1.0 | 3.0 | 0.00 | 0.00 | 0.00 | 76 | 1009.4 |
| 20260506071331 | 63 | 156 | 1.0 | 4.0 | 0.00 | 0.00 | 0.00 | 76 | 1009.4 |
| 20260506070826 | 63 | 136 | 1.0 | 8.0 | 0.00 | 0.00 | 0.00 | 76 | 1009.4 |
| 20260506070321 | 63 | 146 | 1.0 | 8.0 | 0.00 | 0.00 | 0.00 | 76 | 1009.5 |
| 20260506062232 | 64 | 144 | 0.0 | 3.0 | 0.00 | 0.00 | 0.00 | 74 | 1009.7 |
| 20260506061726 | 64 | 175 | 0.0 | 3.0 | 0.00 | 0.00 | 0.00 | 73 | 1009.7 |
| 20260506061219 | 64 | 138 | 0.0 | 3.0 | 0.00 | 0.00 | 0.00 | 73 | 1009.7 |
| 20260506060947 | 64 | 124 | 0.0 | 5.0 | 0.00 | 0.00 | 0.00 | 73 | 1009.8 |
| 20260506060208 | 64 | 174 | 0.0 | 5.0 | 0.00 | 0.00 | 0.00 | 72 | 1009.8 |
| 20260506060203 | 64 | 152 | 0.0 | 4.0 | 0.00 | 0.00 | 0.00 | 72 | 1009.7 |
| 20260506051109 | 65 | 206 | 2.0 | 8.0 | 0.00 | 0.00 | 0.00 | 70 | 1010.1 |
| 20260506050602 | 65 | 167 | 2.0 | 6.0 | 0.00 | 0.00 | 0.00 | 69 | 1010.0 |
| 20260506045044 | 65 | 199 | 2.0 | 6.0 | 0.00 | 0.00 | 0.00 | 68 | 1010.3 |
| 20260506044537 | 65 | 203 | 1.0 | 6.0 | 0.00 | 0.00 | 0.00 | 68 | 1010.4 |
| 20260506044031 | 65 | 186 | 1.0 | 6.0 | 0.00 | 0.00 | 0.00 | 68 | 1010.3 |
| 20260506043526 | 65 | 144 | 2.0 | 6.0 | 0.00 | 0.00 | 0.00 | 68 | 1010.1 |
| 20260506043250 | 65 | 258 | 2.0 | 7.0 | 0.00 | 0.00 | 0.00 | 67 | 1010.3 |
| 20260506042513 | 65 | 188 | 2.0 | 7.0 | 0.00 | 0.00 | 0.00 | 67 | 1010.4 |
| 20260506042009 | 65 | 142 | 2.0 | 7.0 | 0.00 | 0.00 | 0.00 | 66 | 1010.3 |
| 20260506041503 | 65 | 141 | 1.0 | 4.0 | 0.00 | 0.00 | 0.00 | 66 | 1010.3 |
| 20260506040956 | 66 | 148 | 2.0 | 6.0 | 0.00 | 0.00 | 0.00 | 66 | 1010.0 |
| 20260506040450 | 66 | 194 | 2.0 | 7.0 | 0.00 | 0.00 | 0.00 | 66 | 1010.0 |
| 20260506035944 | 66 | 197 | 2.0 | 7.0 | 0.00 | 0.00 | 0.00 | 66 | 1010.0 |
| 20260506035445 | 66 | 139 | 2.0 | 6.0 | 0.00 | 0.00 | 0.00 | 65 | 1010.0 |
| 20260506035214 | 66 | 171 | 2.0 | 5.0 | 0.00 | 0.00 | 0.00 | 65 | 1010.0 |
| 20260506034442 | 66 | 173 | 2.0 | 5.0 | 0.00 | 0.00 | 0.00 | 64 | 1010.0 |
| 20260506033941 | 66 | 215 | 2.0 | 8.0 | 0.00 | 0.00 | 0.00 | 64 | 1009.9 |
| 20260506033442 | 66 | 169 | 2.0 | 8.0 | 0.00 | 0.00 | 0.00 | 64 | 1009.9 |
| 20260506033212 | 66 | 147 | 2.0 | 6.0 | 0.00 | 0.00 | 0.00 | 64 | 1010.0 |
| 20260506032443 | 66 | 127 | 2.0 | 6.0 | 0.00 | 0.00 | 0.00 | 63 | 1010.0 |
| 20260506031944 | 66 | 149 | 2.0 | 8.0 | 0.00 | 0.00 | 0.00 | 63 | 1010.0 |
| 20260506031443 | 66 | 155 | 2.0 | 8.0 | 0.00 | 0.00 | 0.00 | 63 | 1010.1 |
| 20260506030941 | 66 | 200 | 2.0 | 4.0 | 0.00 | 0.00 | 0.00 | 63 | 1010.0 |
| 20260506030442 | 67 | 128 | 2.0 | 6.0 | 0.00 | 0.00 | 0.00 | 63 | 1010.0 |
| 20260506025941 | 67 | 152 | 2.0 | 7.0 | 0.00 | 0.00 | 0.00 | 62 | 1010.1 |
| 20260506025443 | 67 | 132 | 2.0 | 8.0 | 0.00 | 0.00 | 0.00 | 62 | 1010.1 |
| 20260506024937 | 67 | 98 | 2.0 | 8.0 | 0.00 | 0.00 | 0.00 | 62 | 1010.1 |
| 20260506024438 | 67 | 146 | 2.0 | 7.0 | 0.00 | 0.00 | 0.00 | 62 | 1010.1 |
| 20260506023940 | 67 | 148 | 2.0 | 8.0 | 0.00 | 0.00 | 0.00 | 61 | 1010.0 |
| 20260506023439 | 67 | 162 | 2.0 | 8.0 | 0.00 | 0.00 | 0.00 | 60 | 1010.1 |
| 20260506022938 | 67 | 143 | 2.0 | 7.0 | 0.00 | 0.00 | 0.00 | 61 | 1010.3 |
| 20260506022439 | 67 | 115 | 2.0 | 7.0 | 0.00 | 0.00 | 0.00 | 60 | 1010.1 |
| 20260506021938 | 67 | 235 | 2.0 | 4.0 | 0.00 | 0.00 | 0.00 | 60 | 1010.1 |
| 20260506021438 | 67 | 159 | 2.0 | 6.0 | 0.00 | 0.00 | 0.00 | 60 | 1010.1 |
| 20260506020939 | 68 | 171 | 2.0 | 6.0 | 0.00 | 0.00 | 0.00 | 60 | 1010.1 |
| 20260506020438 | 68 | 213 | 1.0 | 4.0 | 0.00 | 0.00 | 0.00 | 59 | 1010.0 |
| 20260506020210 | 68 | 171 | 1.0 | 5.0 | 0.00 | 0.00 | 0.00 | 59 | 1009.9 |
| 20260506015438 | 68 | 179 | 2.0 | 5.0 | 0.00 | 0.00 | 0.00 | 59 | 1009.9 |
| 20260506014939 | 68 | 171 | 2.0 | 4.0 | 0.00 | 0.00 | 0.00 | 59 | 1010.0 |
| 20260506014437 | 69 | 123 | 1.0 | 4.0 | 0.00 | 0.00 | 0.00 | 58 | 1010.0 |
| 20260506013937 | 69 | 140 | 1.0 | 4.0 | 0.00 | 0.00 | 0.00 | 58 | 1010.0 |
| 20260506013439 | 69 | 155 | 2.0 | 4.0 | 0.00 | 0.00 | 0.00 | 57 | 1010.0 |
| 20260506012939 | 69 | 151 | 2.0 | 6.0 | 0.00 | 0.00 | 0.00 | 57 | 1010.0 |
| 20260506012442 | 70 | 148 | 3.0 | 8.0 | 0.00 | 0.00 | 0.00 | 55 | 1009.8 |
| 20260506012437 | 69 | 139 | 2.0 | 6.0 | 0.00 | 0.00 | 0.00 | 56 | 1009.9 |
| 20260506011707 | 70 | 132 | 2.0 | 8.0 | 0.00 | 0.00 | 0.00 | 54 | 1009.8 |
| 20260506011208 | 71 | 128 | 2.0 | 7.0 | 0.00 | 0.00 | 0.00 | 52 | 1009.6 |
| 20260506010706 | 71 | 113 | 2.0 | 7.0 | 0.00 | 0.00 | 0.00 | 52 | 1009.7 |
| 20260506005936 | 71 | 121 | 2.0 | 7.0 | 0.00 | 0.00 | 0.00 | 50 | 1009.7 |
| 20260506005436 | 71 | 117 | 3.0 | 7.0 | 0.00 | 0.00 | 0.00 | 49 | 1009.5 |
| 20260506004933 | 71 | 144 | 3.0 | 7.0 | 0.00 | 0.00 | 0.00 | 49 | 1009.5 |
| 20260506004434 | 72 | 166 | 2.0 | 7.0 | 0.00 | 0.00 | 0.00 | 48 | 1009.4 |
| 20260506003933 | 72 | 168 | 2.0 | 4.0 | 0.00 | 0.00 | 0.00 | 48 | 1009.4 |
| 20260506003439 | 72 | 152 | 2.0 | 7.0 | 0.00 | 0.00 | 0.00 | 45 | 1009.3 |
| 20260506003433 | 72 | 219 | 2.0 | 7.0 | 0.00 | 0.00 | 0.00 | 46 | 1009.3 |
| 20260506002433 | 73 | 151 | 2.0 | 7.0 | 0.00 | 0.00 | 0.00 | 45 | 1009.2 |
| 20260506001931 | 73 | 127 | 2.0 | 7.0 | 0.00 | 0.00 | 0.00 | 45 | 1009.2 |
| 20260506001431 | 73 | 191 | 2.0 | 7.0 | 0.00 | 0.00 | 0.00 | 44 | 1009.1 |
| 20260506000931 | 73 | 111 | 3.0 | 11.0 | 0.00 | 0.00 | 0.00 | 44 | 1009.0 |
| 20260506000431 | 73 | 161 | 3.0 | 11.0 | 0.00 | 0.00 | 0.00 | 43 | 1008.9 |
| 20260505235925 | 73 | 138 | 2.0 | 6.0 | 0.00 | 0.00 | 0.00 | 44 | 1008.9 |
| 20260505235650 | 74 | 127 | 3.0 | 10.0 | 0.00 | 0.00 | 0.00 | 44 | 1008.8 |
| 20260505234911 | 74 | 165 | 3.0 | 10.0 | 0.00 | 0.00 | 0.00 | 43 | 1008.9 |
| 20260505234405 | 74 | 163 | 3.0 | 9.0 | 0.00 | 0.00 | 0.00 | 43 | 1009.0 |
| 20260505234131 | 74 | 158 | 3.0 | 9.0 | 0.00 | 0.00 | 0.00 | 42 | 1008.8 |
| 20260505233353 | 74 | 167 | 3.0 | 8.0 | 0.00 | 0.00 | 0.00 | 41 | 1008.7 |
| 20260505232847 | 75 | 136 | 3.0 | 9.0 | 0.00 | 0.00 | 0.00 | 42 | 1008.7 |
| 20260505232343 | 75 | 192 | 4.0 | 15.0 | 0.00 | 0.00 | 0.00 | 41 | 1008.6 |
| 20260505231836 | 75 | 149 | 5.0 | 15.0 | 0.00 | 0.00 | 0.00 | 41 | 1008.5 |
| 20260505231831 | 76 | 146 | 4.0 | 15.0 | 0.00 | 0.00 | 0.00 | 40 | 1008.6 |
| 20260505230824 | 76 | 114 | 4.0 | 15.0 | 0.00 | 0.00 | 0.00 | 41 | 1008.5 |
| 20260505230319 | 76 | 211 | 3.0 | 8.0 | 0.00 | 0.00 | 0.00 | 40 | 1008.4 |
| 20260505225812 | 76 | 140 | 3.0 | 7.0 | 0.00 | 0.00 | 0.00 | 39 | 1008.4 |
| 20260505225308 | 77 | 152 | 3.0 | 7.0 | 0.00 | 0.00 | 0.00 | 38 | 1008.4 |
| 20260505225305 | 77 | 161 | 4.0 | 9.0 | 0.00 | 0.00 | 0.00 | 37 | 1008.4 |
| 20260505224254 | 77 | 190 | 4.0 | 12.0 | 0.00 | 0.00 | 0.00 | 36 | 1008.3 |
| 20260505223747 | 77 | 220 | 4.0 | 18.0 | 0.00 | 0.00 | 0.00 | 35 | 1008.3 |
| 20260505223513 | 77 | 209 | 4.0 | 18.0 | 0.00 | 0.00 | 0.00 | 35 | 1008.2 |
| 20260505223006 | 78 | 219 | 3.0 | 17.0 | 0.00 | 0.00 | 0.00 | 36 | 1008.1 |
| 20260505222229 | 78 | 177 | 3.0 | 14.0 | 0.00 | 0.00 | 0.00 | 35 | 1008.1 |